Tracking 27419 objects as of 10-Jun-2023
HD Live streaming from Space Station
objects crossing your sky now

FLOCK 4EP 2

Track FLOCK 4EP 2 now!
10-day predictions
FLOCK 4EP 2 is classified as:


NORAD ID: 46820
Int'l Code: 2020-077H
Perigee: 455.3 km
Apogee: 472.6 km
Inclination: 97.4 °
Period: 93.7 minutes
Semi major axis: 6834 km
RCS: Unknown
Launch date: October 28, 2020
Source: United States (US)
Launch site: Rocket Lab Launch Complex (RLLC)
Your satellite tracking list
Your tracking list is empty




NASA's NSSDC Master Catalog

Two Line Element Set (TLE):
1 46820U 20077H   23160.14349920  .00068994  00000-0  19264-2 0  9990
2 46820  97.3745 225.8686 0012693 202.0019 158.0682 15.36388876144946
Source of the keplerian elements: AFSPC